METAR UND TAF INFORMATION
EPKT 100130Z 21006KT 7000 BKN044 03/01 Q1009

 FLUGHAFENKARTE

 RUNWAY INFORMATION
Runway 09 Runway length 9183 ft Runway width 195 ft
Runway elevation 970 ft Runway displaced threshold 0 ft Runway heading 90
Runway 27 Runway length 9183 ft Runway width 195 ft
Runway elevation 994 ft Runway displaced threshold 0 ft Runway heading 270

 AIRPORT FREQUENCIES
Type APP Name APP Frequency 121.075 MHZ
Type GCCD Name HANDLING Frequency 131.45 MHZ
Type TWR Name TWR Frequency 129.25 MHZ

 AIRPORT NEAR NAVIGATION AIDS
Type NDB Name Katowice Frequency 285 KHZ